铱星星座 176星 (IRIDIUM 176)

导读

IRIDIUM 176是美国于2019年1月11日发射的通信卫星,隶属于铱星下一代(Iridium Next)星座,旨在更新替换第一代铱星系统,提供全球范围的卫星移动通信服务。卫星运行于近地极地轨道,延续了铱星网络“全球覆盖、永不离线”的通信优势,为海事、航空、偏远地区通信及应急救援等领域提供稳定连接,支撑起全球无缝的个人与工业卫星通信服务,是铱星星座升级换代过程中的重要组成部分。

基本信息
目录编号:
43923
目录名称:
IRIDIUM 176
国际标识:
2019-002B
轨道中心:
EARTH
卫星名称:
铱星星座 176星
卫星全名:
铱星星座 176星 (IRIDIUM 176)
卫星状态:
在轨 (已飞行2709 天)
发射日期:
2019-01-11 UTC
国别 :
美国 (US)
星等 :
--
轨道信息
数据来源 国际轨道数据 AOE轨道数据
星历时间 2026-06-12T14:22:02+0800
13小时前
查看轨道信息
2026-06-08T09:00:00+0800
4天前
查看轨道信息
半长轴 7031.997km 7032.022km
偏心率 0.0002244 0.0002043
轨道倾角 86.609° 86.611°
近地点辐角 91.806° 90.166°
升交点赤经 355.600° 357.366°
平近点角 268.341° 218.880°
近地点 652.282km 652.448km
远地点 655.438km 655.322km
周期 97.809分钟 97.809分钟
每日圈数 14.72261 14.722532
详细信息
平衡模式:
三轴稳定
覆盖范围:
全球
运营商:
铱星通信公司
运营商所在国:
美国
制造商(研发单位):
阿莱尼亚宇航公司
制造商所在国:
意大利
使用方式:
暂无
卫星简介
铱星(Iridium)是由共66个运作中的通信卫星组成的卫星通信系统。这个系统原本规划77个通信卫星,所以用原子序数为77的铱元素来命名。铱卫星允许人们使用手持型电子设备进行全球性的语音及数据通讯。该卫星仍在工作。
2D轨道图
3D轨道图
轨道高度分析图
轨道倾角分析图
轨道综合分析图
查看轨道综合分析图